sat.trackr.live / text

‹ back to catalog

STARLINK-35069

NORAD 66268 · 2025-247D

PAYLOAD ACTIVE UNKNOWN

§ Identity

Operator
Country
US
Launch date
2025-10-31
Launch site
AFWTR
Launch vehicle
Mass (kg)
RCS (m²)

Purposes: comms

External: N2YO · Heavens-Above · Gunter

§ Orbital elements

Epoch: 2026-09-20T11:54:28.624032Z

Period
93.85 min
Inclination
53.1591°
Eccentricity
0.0001093
Mean motion
15.34407733 rev/d
Perigee alt
461.9 km
Apogee alt
463.4 km
Semi-major
6,840.8 km
B*
5.9375e-4
RAAN
3.4519°
Arg perigee
47.9111°
Mean anomaly
312.1984°
Rev number
5,090

§ Raw data

STARLINK-350691 66268U 25247D   26263.49616463  .00019742  00000+0  59375-3 0  99902 66268  53.1591   3.4519 0001093  47.9111 312.1984 15.34407733 50901

JSON: /api/v1/satellites/66268 · /tle

For live sub-satellite position, see the globe view (requires WebGL).

§ Visibility from observer

Set your observer location to see the next 7 days of passes ≥ 10°. The values pass through the URL so the page stays shareable.

No JS? Fill the form by hand. The geolocation button needs JavaScript.